Regional Weather Roundup
Issued by NWS Green Bay, WI

Home | Current Version | Previous Version | Graphics & Text | Print | Product List | Glossary Off
Versions: 1 2 3 4 5 6 7 8 9 10 11 12 13 14 15 16 17 18 19 20 21 22 23 24 25 26 27 28 29 30 31 32 33 34 35 36 37 38 39 40 41 42 43 44 45 46 47 48 49 50

000
ASUS43 KGRB 202359
RWRGRB

NORTH-CENTRAL AND NORTHEAST WISCONSIN REGIONAL WEATHER ROUNDUP
NATIONAL WEATHER SERVICE GREEN BAY WI
700 PM CDT MON APR 20 2015

WIZ005-009-010>012-018-019-210100-
NORTH CENTRAL WISCONSIN

CITY           SKY/WX    TMP DP  RH WIND       PRES   REMARKS
IRONWOOD       CLOUDY    36  28  75 NW15G24   29.33R
MANITOWISH WTR NOT AVBL
ARBOR VITAE    NOT AVBL
EAGLE RIVER    NOT AVBL
LAND O LAKES   NOT AVBL
RHINELANDER    CLOUDY    36  29  75 W16G25    29.36R
PHILLIPS       NOT AVBL
ANTIGO         NOT AVBL
TOMAHAWK       NOT AVBL
MERRILL        NOT AVBL
$$

WIZ013-073-210100-
NORTHEAST WISCONSIN

CITY           SKY/WX    TMP DP  RH WIND       PRES   REMARKS
IRON MOUNTAIN  LGT RAIN  37  32  82 W13G22    29.31R
MARINETTE      MOCLDY    41  36  81 W14G20    29.35R
$$

WIZ017-030-035>037-045-210100-
CENTRAL WISCONSIN

CITY           SKY/WX    TMP DP  RH WIND       PRES   REMARKS
MEDFORD        NOT AVBL
WAUSAU         CLOUDY    38  29  70 W14G24    29.40R
MOSINEE        CLOUDY    37  30  75 W16       29.44R
MARSHFIELD     CLOUDY    39  29  67 W13       29.44R
WISC RAPIDS    CLOUDY    40  27  59 W9        29.47S
STEVENS POINT  NOT AVBL
WAUPACA        NOT AVBL
SHAWANO        NOT AVBL
CLINTONVILLE   NOT AVBL
$$

WIZ038-039-048-051-210100-
FOX VALLEY

CITY           SKY/WX    TMP DP  RH WIND       PRES   REMARKS
NWS GREEN BAY  CLOUDY    42  33  70 W22G29    29.42R
APPLETON       CLOUDY    39  32  75 W17G26    29.45R
OSHKOSH        CLOUDY    42  31  64 W14G24    29.46R
FOND DU LAC    CLOUDY    42  32  67 W13G23    29.48R
$$

WIZ022-050-052-210100-
EAST CENTRAL WISCONSIN

CITY           SKY/WX    TMP DP  RH WIND       PRES   REMARKS
STURGEON BAY   CLOUDY    41  36  81 W15G21    29.39R
MANITOWOC      CLOUDY    43  36  75 W14G22    29.43R
SHEBOYGAN      CLOUDY    42  33  70 W22G29    29.45R
$$

LMZ563-521-522-541>543-210100-
LAKESHORE

STATION/POSITION TIME  TEMP    WIND        PRES    VSBY  WAVE
                       AIR SEA DIR/SP/G                  HT/PER
                 (UTC) (F)     (DEG/KT/KT) (MB)    (MI)  (FT/S)
SHEBOYGAN LKSHOR 2300   43     280/ 18/ 26  997.4R
KEWAUNEE LKSHORE 2300   43     270/ 16/ 20  994.8R
NORTHPORT PIER   2300   39     270/  4/  9  994.2R
SISTER BAY LKSHO 2300   39     270/ 13/ 14   N/A
CHAMBERS ISLAND  2300   40     220/  7/ 11  994.6R
MENOMINEE LKSHOR 2300   42     230/  9/ 13  994.9R
$$



USA.gov is the U.S. government's official web portal to all federal, state and local government web resources and services.